Regional Weather Roundup
Issued by NWS Kansas City/Pleasant Hill, MO

Home | Current Version | Previous Version | Graphics & Text | Print | Product List | Glossary Off
Versions: 1 2 3 4 5 6 7 8 9 10 11 12 13 14 15 16 17 18 19 20 21 22 23 24 25 26 27 28 29 30 31 32 33 34 35 36 37 38 39 40 41 42 43 44 45 46 47 48 49 50

000
ASUS43 KEAX 312010
RWREAX

WEATHER ROUNDUP FOR EASTERN KANSAS AND NORTHWEST MISSOURI
NATIONAL WEATHER SERVICE KANSAS CITY/PLEASANT HILL MO
300 PM CDT MON AUG 31 2015

KSZ040-057-103>105-MOZ028-029-037-043-312100-
...KANSAS CITY METROPOLITAN AREA...

CITY           SKY/WX    TMP DP  RH WIND       PRES   REMARKS
K.C. INTL      MOSUNNY   90  65  43 S10       29.97F HX  92
K.C. DOWNTOWN  SUNNY     90  67  46 SW6       29.95F HX  93
LEES SUMMIT    SUNNY     88  68  51 S8        29.98F HX  91
OLATHE - IXD   SUNNY     87  71  58 S10       29.98F HX  93
OLATHE - OJC   SUNNY     86  69  56 S10G16    29.97F HX  90
LAWRENCE       SUNNY     90  69  50 S10       29.95F HX  94

$$

MOZ001>008-011>017-020>025-030>033-038>040-044>046-053-054-312100-
...NORTHERN AND CENTRAL MISSOURI...

CITY           SKY/WX    TMP DP  RH WIND       PRES   REMARKS
ST. JOSEPH     MOSUNNY   88  68  51 S6        29.95F HX  91
MOSBY          PTCLDY    88  66  48 S10G16    29.97S HX  90
WARRENSBURG    SUNNY     88  66  48 S10       29.98F HX  90
WHITEMAN AFB   MOSUNNY   91  68  47 S15       29.97F HX  95
CLINTON        SUNNY     91  70  49 S7        29.99F HX  97
SEDALIA        SUNNY     93  66  40 SW10      30.00F HX  96
WARSAW         NOT AVBL
CHILLICOTHE      N/A     89  72  56 S10       29.97F HX  96
KIRKSVILLE     SUNNY     89  69  51 SW12      29.99F HX  93

$$

MOZ041-047>049-056>058-063>065-088>090-097-312100-
...EASTERN AND SOUTHERN MISSOURI...

CITY           SKY/WX    TMP DP  RH WIND       PRES   REMARKS
ST. LOUIS INTL PTSUNNY   91  69  48 S7        30.03F HX  96
SPIRIT OF STL  PTSUNNY   90  72  55 VRB3      30.01F HX  97
COLUMBIA       MOSUNNY   89  70  53 S13       30.01F HX  94
JEFFERSON CITY SUNNY     91  67  44 S13       29.99F HX  94
ROLLA          MOSUNNY   90  69  50 S10       30.03F HX  94
OSAGE BEACH    SUNNY     91  66  43 S9        30.02F HX  94
SPRINGFIELD    SUNNY     88  67  49 SW8       30.03F HX  91
BRANSON        PTSUNNY   81  66  61 SE8G17    30.07S
JOPLIN         SUNNY     89  68  49 S10       30.01F HX  93
WEST PLAINS    MOSUNNY   87  68  52 S6        30.08F HX  90

$$

IAZ060-094-KSZ022-034>040-054-083-096-NEZ052-066-093-312100-
...KANSAS...SOUTHEAST NEBRASKA AND IOWA...

CITY           SKY/WX    TMP DP  RH WIND       PRES   REMARKS
TOPEKA         SUNNY     90  68  48 S9        29.94F HX  94
MANHATTAN      SUNNY     92  68  45 S9        29.91F HX  96
EMPORIA        SUNNY     90  64  42 S15       29.94F HX  91
CHANUTE        SUNNY     88  71  57 S14G24    29.98F HX  94
WICHITA        SUNNY     90  66  45 SE16      29.93F HX  92
OMAHA          MOSUNNY   85  67  54 S12       29.93F
LINCOLN        MOSUNNY   86  68  54 S10G20    29.93F
FALLS CITY     SUNNY     88  66  48 S6        29.94F HX  90
LAMONI         PTSUNNY   85  71  63 S9        29.97F HX  90
DES MOINES     MOSUNNY   88  71  57 S13       29.95F HX  94

$$




USA.gov is the U.S. government's official web portal to all federal, state and local government web resources and services.